Pacific Dawn — 3ECJ9 — position and weather

sailwx.info

Track history (hours):
 
Tides and Currents Weather Stations Pressure Air Temp Water Temp Dewpoint Dewpoint Depression Visibility Wind Speed Wind Dir Waves Ship Positions

Pacific Dawn

Last reported at 2017-Jan-16 06:15 UTC. Time now 2017-Jan-20 11:54 UTC.
Position N 01°17' E 104°01'.

Length 239 m; draft 8 m.

Type: Tanker. MMSI: 371361000.

Date/timePositionNaut miles runAvg speedWind from/ knotsBaromVisibWave heightAir tempDewpointWater temp
2017-Jan-16 06:15N 01°17' E 104°01'1 1.7
2017-Jan-16 05:31N 01°17' E 104°00'0 0.0
2017-Jan-16 04:31N 01°17' E 104°00'0 0.1
2017-Jan-16 03:10N 01°17' E 103°60'0 0.0
2017-Jan-16 02:28N 01°17' E 103°60'0 0.0
2017-Jan-16 01:29N 01°17' E 103°60'0 0.0
2017-Jan-16 00:32N 01°17' E 103°60'0 0.0
2017-Jan-15 23:31N 01°17' E 103°60'0 0.0
2017-Jan-15 22:31N 01°17' E 103°60'0 0.0
2017-Jan-15 21:32N 01°17' E 103°60'0 0.1
2017-Jan-15 20:13N 01°17' E 104°00'0 0.0
2017-Jan-15 19:26N 01°17' E 104°00'0 0.1
2017-Jan-15 18:29N 01°17' E 103°60'0 0.1
2017-Jan-15 17:32N 01°17' E 104°00'0 0.0
2017-Jan-15 16:16N 01°17' E 104°00'0 0.0
2017-Jan-15 15:31N 01°17' E 104°00'0 0.0
2017-Jan-15 14:29N 01°17' E 104°00'0 0.1
2017-Jan-15 13:11N 01°17' E 104°00'0 0.1
2017-Jan-15 12:20N 01°17' E 104°00'0 0.0
2017-Jan-15 11:26N 01°17' E 104°00'2 2.0
2017-Jan-15 10:34N 01°16' E 103°59'6 6.2
2017-Jan-15 09:33N 01°12' E 103°54'7410.2
2017-Jan-15 02:16N 01°39' E 102°45'1513.2
2017-Jan-15 01:08N 01°46' E 102°32'813.4
2017-Jan-15 00:33N 01°49' E 102°25'15 0.3
2017-Jan-13 00:23N 01°59' E 102°14'910.8
2017-Jan-12 23:34N 01°54' E 102°21'1211.5
2017-Jan-12 22:33N 01°49' E 102°32'1212.1
2017-Jan-12 21:33N 01°44' E 102°43'1312.9
2017-Jan-12 20:33N 01°40' E 102°55'6111.3
2017-Jan-12 15:12N 01°11' E 103°48'3 4.7
2017-Jan-12 14:32N 01°14' E 103°47'1 0.0
2017-Jan-11 01:33N 01°14' E 103°46'6 5.7
2017-Jan-11 00:33N 01°13' E 103°52'4 3.5
2017-Jan-10 23:29N 01°16' E 103°54'0 0.0
2017-Jan-10 22:29N 01°16' E 103°54'0 0.0
2017-Jan-10 21:29N 01°16' E 103°54'0 0.0
2017-Jan-10 20:29N 01°16' E 103°54'0 0.0
2017-Jan-10 19:23N 01°16' E 103°54'0 0.0
2017-Jan-10 18:26N 01°16' E 103°54'0 0.0
2017-Jan-10 17:11N 01°16' E 103°54'0 0.0
2017-Jan-10 16:26N 01°16' E 103°54'0 0.0
2017-Jan-10 15:29N 01°16' E 103°54'0 0.0
2017-Jan-10 14:29N 01°16' E 103°54'0 0.0
2017-Jan-10 13:17N 01°16' E 103°54'0 0.0
2017-Jan-10 12:32N 01°16' E 103°54'0 0.0
2017-Jan-10 11:29N 01°16' E 103°54'0 0.0
2017-Jan-10 10:32N 01°16' E 103°54'0 0.1
2017-Jan-10 09:29N 01°16' E 103°54'0 0.1
2017-Jan-10 08:32N 01°16' E 103°54'0 0.0
2017-Jan-10 07:29N 01°16' E 103°54'0 0.0
2017-Jan-10 06:23N 01°16' E 103°54'0 0.1
2017-Jan-10 05:17N 01°16' E 103°55'0 0.0
2017-Jan-10 04:23N 01°16' E 103°55'0 0.0
2017-Jan-10 03:29N 01°16' E 103°55'0 0.1
2017-Jan-10 02:29N 01°16' E 103°55'0 0.2
2017-Jan-10 01:29N 01°16' E 103°54'0 0.1
2017-Jan-10 00:32N 01°16' E 103°54'0 0.0
2017-Jan-09 23:29N 01°16' E 103°54'0 0.0
2017-Jan-09 22:29N 01°16' E 103°54'0 0.0
2017-Jan-09 21:32N 01°16' E 103°54'0 0.0
2017-Jan-09 20:29N 01°16' E 103°54'0 0.0
2017-Jan-09 19:32N 01°16' E 103°54'0 0.0
2017-Jan-09 18:29N 01°16' E 103°54'0 0.0
2017-Jan-09 17:23N 01°16' E 103°54'0 0.0
2017-Jan-09 16:29N 01°16' E 103°54'0 0.0
2017-Jan-09 15:29N 01°16' E 103°54'0 0.0
2017-Jan-09 14:29N 01°16' E 103°54'0 0.0
2017-Jan-09 12:23N 01°16' E 103°54'0 0.0
2017-Jan-09 11:29N 01°16' E 103°54'0 0.0
2017-Jan-09 10:23N 01°16' E 103°54'0 0.0
2017-Jan-09 09:32N 01°16' E 103°54'0 0.2
2017-Jan-09 08:29N 01°16' E 103°54'0 0.1
2017-Jan-09 07:32N 01°16' E 103°54'0 0.0
2017-Jan-09 06:32N 01°16' E 103°54'0 0.0
2017-Jan-09 04:29N 01°16' E 103°55'0 0.0
2017-Jan-09 02:32N 01°16' E 103°55'0 0.2
2017-Jan-09 01:32N 01°16' E 103°54'0 0.1
2017-Jan-09 00:20N 01°16' E 103°54'0 0.1
2017-Jan-08 23:29N 01°16' E 103°54'0 0.0
2017-Jan-08 22:17N 01°16' E 103°54'0 0.0
2017-Jan-08 21:11N 01°16' E 103°54'0 0.0
2017-Jan-08 20:29N 01°16' E 103°54'0 0.0
2017-Jan-08 19:05N 01°16' E 103°54'0 0.0
2017-Jan-08 17:29N 01°16' E 103°54'0 0.0
2017-Jan-08 16:29N 01°16' E 103°54'0 0.0
2017-Jan-08 15:11N 01°16' E 103°54'0 0.0
2017-Jan-08 14:26N 01°16' E 103°54'0 0.0
2017-Jan-08 13:29N 01°16' E 103°54'0 0.0
2017-Jan-08 12:29N 01°16' E 103°54'0 0.0
2017-Jan-08 11:32N 01°16' E 103°54'0 0.1
2017-Jan-08 10:23N 01°16' E 103°54'0 0.1
2017-Jan-08 09:29N 01°16' E 103°54'0 0.1
2017-Jan-08 08:23N 01°16' E 103°54'0 0.1
2017-Jan-08 07:23N 01°16' E 103°54'0 0.0
2017-Jan-08 06:29N 01°16' E 103°54'0 0.0
2017-Jan-08 05:29N 01°16' E 103°54'0 0.1
2017-Jan-08 04:32N 01°16' E 103°55'0 0.0
2017-Jan-08 03:17N 01°16' E 103°55'0 0.0
2017-Jan-08 02:29N 01°16' E 103°55'0 0.1
2017-Jan-08 01:17N 01°16' E 103°54'0 0.2
2017-Jan-08 00:32N 01°16' E 103°54'0 0.0
2017-Jan-07 23:32N 01°16' E 103°54'0 0.0
2017-Jan-07 22:32N 01°16' E 103°54'0 0.0
2017-Jan-07 21:29N 01°16' E 103°54'0 0.0
2017-Jan-07 20:29N 01°16' E 103°54'0 0.0
2017-Jan-07 19:32N 01°16' E 103°54'0 0.0
2017-Jan-07 18:23N 01°16' E 103°54'0 0.0
2017-Jan-07 17:29N 01°16' E 103°54'0 0.0
2017-Jan-07 16:29N 01°16' E 103°54'0 0.0
2017-Jan-07 15:26N 01°16' E 103°54'0 0.0
2017-Jan-07 14:26N 01°16' E 103°54'0 0.0
2017-Jan-07 13:32N 01°16' E 103°54'0 0.0
2017-Jan-07 12:29N 01°16' E 103°54'0 0.0
2017-Jan-07 11:26N 01°16' E 103°54'0 0.0
2017-Jan-07 10:29N 01°16' E 103°54'0 0.0
2017-Jan-07 09:26N 01°16' E 103°54'0 0.0
2017-Jan-07 08:29N 01°16' E 103°54'0 0.0
2017-Jan-07 07:20N 01°16' E 103°54'0 0.0
2017-Jan-07 06:20N 01°16' E 103°54'0 0.0
2017-Jan-07 05:29N 01°16' E 103°54'0 0.0
2017-Jan-07 04:23N 01°16' E 103°54'0 0.0
2017-Jan-07 03:29N 01°16' E 103°54'0 0.1
2017-Jan-07 02:29N 01°16' E 103°54'0 0.0
2017-Jan-07 01:32N 01°16' E 103°54'0 0.0
2017-Jan-07 00:23N 01°16' E 103°54'0 0.0
2017-Jan-06 23:29N 01°16' E 103°54'0 0.0
2017-Jan-06 22:32N 01°16' E 103°54'0 0.0
2017-Jan-06 21:29N 01°16' E 103°54'0 0.0
2017-Jan-06 20:23N 01°16' E 103°54'0 0.0
2017-Jan-06 19:11N 01°16' E 103°54'0 0.0
2017-Jan-06 18:29N 01°16' E 103°54'0 0.0
2017-Jan-06 17:17N 01°16' E 103°54'0 0.0
2017-Jan-06 16:29N 01°16' E 103°54'0 0.1
2017-Jan-06 15:26N 01°16' E 103°54'0 0.1
2017-Jan-06 14:20N 01°16' E 103°54'0 0.1
2017-Jan-06 13:26N 01°16' E 103°54'0 0.0
2017-Jan-06 11:29N 01°16' E 103°55'0 0.1
2017-Jan-06 10:32N 01°16' E 103°54'0 0.2
2017-Jan-06 09:26N 01°16' E 103°54'0 0.1
2017-Jan-06 08:26N 01°16' E 103°54'0 0.0
2017-Jan-06 07:32N 01°16' E 103°54'0 0.0
2017-Jan-06 06:26N 01°16' E 103°54'  
Track history (hours):
 
Tides and Currents Weather Stations Pressure Air Temp Water Temp Dewpoint Dewpoint Depression Visibility Wind Speed Wind Dir Waves Ship Positions

Pacific Dawn

Last reported at 2017-Jan-16 06:15 UTC. Time now 2017-Jan-20 11:54 UTC.
Position N 01°17' E 104°01'.

Length 239 m; draft 8 m.

Type: Tanker. MMSI: 371361000.

Date/timePositionNaut miles runAvg speedWind from/ knotsBaromVisibWave heightAir tempDewpointWater temp
2017-Jan-16 06:15N 01°17' E 104°01'1 1.7
2017-Jan-16 05:31N 01°17' E 104°00'0 0.0
2017-Jan-16 04:31N 01°17' E 104°00'0 0.1
2017-Jan-16 03:10N 01°17' E 103°60'0 0.0
2017-Jan-16 02:28N 01°17' E 103°60'0 0.0
2017-Jan-16 01:29N 01°17' E 103°60'0 0.0
2017-Jan-16 00:32N 01°17' E 103°60'0 0.0
2017-Jan-15 23:31N 01°17' E 103°60'0 0.0
2017-Jan-15 22:31N 01°17' E 103°60'0 0.0
2017-Jan-15 21:32N 01°17' E 103°60'0 0.1
2017-Jan-15 20:13N 01°17' E 104°00'0 0.0
2017-Jan-15 19:26N 01°17' E 104°00'0 0.1
2017-Jan-15 18:29N 01°17' E 103°60'0 0.1
2017-Jan-15 17:32N 01°17' E 104°00'0 0.0
2017-Jan-15 16:16N 01°17' E 104°00'0 0.0
2017-Jan-15 15:31N 01°17' E 104°00'0 0.0
2017-Jan-15 14:29N 01°17' E 104°00'0 0.1
2017-Jan-15 13:11N 01°17' E 104°00'0 0.1
2017-Jan-15 12:20N 01°17' E 104°00'0 0.0
2017-Jan-15 11:26N 01°17' E 104°00'2 2.0
2017-Jan-15 10:34N 01°16' E 103°59'6 6.2
2017-Jan-15 09:33N 01°12' E 103°54'7410.2
2017-Jan-15 02:16N 01°39' E 102°45'1513.2
2017-Jan-15 01:08N 01°46' E 102°32'813.4
2017-Jan-15 00:33N 01°49' E 102°25'15 0.3
2017-Jan-13 00:23N 01°59' E 102°14'910.8
2017-Jan-12 23:34N 01°54' E 102°21'1211.5
2017-Jan-12 22:33N 01°49' E 102°32'1212.1
2017-Jan-12 21:33N 01°44' E 102°43'1312.9
2017-Jan-12 20:33N 01°40' E 102°55'6111.3
2017-Jan-12 15:12N 01°11' E 103°48'3 4.7
2017-Jan-12 14:32N 01°14' E 103°47'1 0.0
2017-Jan-11 01:33N 01°14' E 103°46'6 5.7
2017-Jan-11 00:33N 01°13' E 103°52'4 3.5
2017-Jan-10 23:29N 01°16' E 103°54'0 0.0
2017-Jan-10 22:29N 01°16' E 103°54'0 0.0
2017-Jan-10 21:29N 01°16' E 103°54'0 0.0
2017-Jan-10 20:29N 01°16' E 103°54'0 0.0
2017-Jan-10 19:23N 01°16' E 103°54'0 0.0
2017-Jan-10 18:26N 01°16' E 103°54'0 0.0
2017-Jan-10 17:11N 01°16' E 103°54'0 0.0
2017-Jan-10 16:26N 01°16' E 103°54'0 0.0
2017-Jan-10 15:29N 01°16' E 103°54'0 0.0
2017-Jan-10 14:29N 01°16' E 103°54'0 0.0
2017-Jan-10 13:17N 01°16' E 103°54'0 0.0
2017-Jan-10 12:32N 01°16' E 103°54'0 0.0
2017-Jan-10 11:29N 01°16' E 103°54'0 0.0
2017-Jan-10 10:32N 01°16' E 103°54'0 0.1
2017-Jan-10 09:29N 01°16' E 103°54'0 0.1
2017-Jan-10 08:32N 01°16' E 103°54'0 0.0
2017-Jan-10 07:29N 01°16' E 103°54'0 0.0
2017-Jan-10 06:23N 01°16' E 103°54'0 0.1
2017-Jan-10 05:17N 01°16' E 103°55'0 0.0
2017-Jan-10 04:23N 01°16' E 103°55'0 0.0
2017-Jan-10 03:29N 01°16' E 103°55'0 0.1
2017-Jan-10 02:29N 01°16' E 103°55'0 0.2
2017-Jan-10 01:29N 01°16' E 103°54'0 0.1
2017-Jan-10 00:32N 01°16' E 103°54'0 0.0
2017-Jan-09 23:29N 01°16' E 103°54'0 0.0
2017-Jan-09 22:29N 01°16' E 103°54'0 0.0
2017-Jan-09 21:32N 01°16' E 103°54'0 0.0
2017-Jan-09 20:29N 01°16' E 103°54'0 0.0
2017-Jan-09 19:32N 01°16' E 103°54'0 0.0
2017-Jan-09 18:29N 01°16' E 103°54'0 0.0
2017-Jan-09 17:23N 01°16' E 103°54'0 0.0
2017-Jan-09 16:29N 01°16' E 103°54'0 0.0
2017-Jan-09 15:29N 01°16' E 103°54'0 0.0
2017-Jan-09 14:29N 01°16' E 103°54'0 0.0
2017-Jan-09 12:23N 01°16' E 103°54'0 0.0
2017-Jan-09 11:29N 01°16' E 103°54'0 0.0
2017-Jan-09 10:23N 01°16' E 103°54'0 0.0
2017-Jan-09 09:32N 01°16' E 103°54'0 0.2
2017-Jan-09 08:29N 01°16' E 103°54'0 0.1
2017-Jan-09 07:32N 01°16' E 103°54'0 0.0
2017-Jan-09 06:32N 01°16' E 103°54'0 0.0
2017-Jan-09 04:29N 01°16' E 103°55'0 0.0
2017-Jan-09 02:32N 01°16' E 103°55'0 0.2
2017-Jan-09 01:32N 01°16' E 103°54'0 0.1
2017-Jan-09 00:20N 01°16' E 103°54'0 0.1
2017-Jan-08 23:29N 01°16' E 103°54'0 0.0
2017-Jan-08 22:17N 01°16' E 103°54'0 0.0
2017-Jan-08 21:11N 01°16' E 103°54'0 0.0
2017-Jan-08 20:29N 01°16' E 103°54'0 0.0
2017-Jan-08 19:05N 01°16' E 103°54'0 0.0
2017-Jan-08 17:29N 01°16' E 103°54'0 0.0
2017-Jan-08 16:29N 01°16' E 103°54'0 0.0
2017-Jan-08 15:11N 01°16' E 103°54'0 0.0
2017-Jan-08 14:26N 01°16' E 103°54'0 0.0
2017-Jan-08 13:29N 01°16' E 103°54'0 0.0
2017-Jan-08 12:29N 01°16' E 103°54'0 0.0
2017-Jan-08 11:32N 01°16' E 103°54'0 0.1
2017-Jan-08 10:23N 01°16' E 103°54'0 0.1
2017-Jan-08 09:29N 01°16' E 103°54'0 0.1
2017-Jan-08 08:23N 01°16' E 103°54'0 0.1
2017-Jan-08 07:23N 01°16' E 103°54'0 0.0
2017-Jan-08 06:29N 01°16' E 103°54'0 0.0
2017-Jan-08 05:29N 01°16' E 103°54'0 0.1
2017-Jan-08 04:32N 01°16' E 103°55'0 0.0
2017-Jan-08 03:17N 01°16' E 103°55'0 0.0
2017-Jan-08 02:29N 01°16' E 103°55'0 0.1
2017-Jan-08 01:17N 01°16' E 103°54'0 0.2
2017-Jan-08 00:32N 01°16' E 103°54'0 0.0
2017-Jan-07 23:32N 01°16' E 103°54'0 0.0
2017-Jan-07 22:32N 01°16' E 103°54'0 0.0
2017-Jan-07 21:29N 01°16' E 103°54'0 0.0
2017-Jan-07 20:29N 01°16' E 103°54'0 0.0
2017-Jan-07 19:32N 01°16' E 103°54'0 0.0
2017-Jan-07 18:23N 01°16' E 103°54'0 0.0
2017-Jan-07 17:29N 01°16' E 103°54'0 0.0
2017-Jan-07 16:29N 01°16' E 103°54'0 0.0
2017-Jan-07 15:26N 01°16' E 103°54'0 0.0
2017-Jan-07 14:26N 01°16' E 103°54'0 0.0
2017-Jan-07 13:32N 01°16' E 103°54'0 0.0
2017-Jan-07 12:29N 01°16' E 103°54'0 0.0
2017-Jan-07 11:26N 01°16' E 103°54'0 0.0
2017-Jan-07 10:29N 01°16' E 103°54'0 0.0
2017-Jan-07 09:26N 01°16' E 103°54'0 0.0
2017-Jan-07 08:29N 01°16' E 103°54'0 0.0
2017-Jan-07 07:20N 01°16' E 103°54'0 0.0
2017-Jan-07 06:20N 01°16' E 103°54'0 0.0
2017-Jan-07 05:29N 01°16' E 103°54'0 0.0
2017-Jan-07 04:23N 01°16' E 103°54'0 0.0
2017-Jan-07 03:29N 01°16' E 103°54'0 0.1
2017-Jan-07 02:29N 01°16' E 103°54'0 0.0
2017-Jan-07 01:32N 01°16' E 103°54'0 0.0
2017-Jan-07 00:23N 01°16' E 103°54'0 0.0
2017-Jan-06 23:29N 01°16' E 103°54'0 0.0
2017-Jan-06 22:32N 01°16' E 103°54'0 0.0
2017-Jan-06 21:29N 01°16' E 103°54'0 0.0
2017-Jan-06 20:23N 01°16' E 103°54'0 0.0
2017-Jan-06 19:11N 01°16' E 103°54'0 0.0
2017-Jan-06 18:29N 01°16' E 103°54'0 0.0
2017-Jan-06 17:17N 01°16' E 103°54'0 0.0
2017-Jan-06 16:29N 01°16' E 103°54'0 0.1
2017-Jan-06 15:26N 01°16' E 103°54'0 0.1
2017-Jan-06 14:20N 01°16' E 103°54'0 0.1
2017-Jan-06 13:26N 01°16' E 103°54'0 0.0
2017-Jan-06 11:29N 01°16' E 103°55'0 0.1
2017-Jan-06 10:32N 01°16' E 103°54'0 0.2
2017-Jan-06 09:26N 01°16' E 103°54'0 0.1
2017-Jan-06 08:26N 01°16' E 103°54'0 0.0
2017-Jan-06 07:32N 01°16' E 103°54'0 0.0
2017-Jan-06 06:26N 01°16' E 103°54'  

Dump ship's entire track history